H1 CPF 2 NER 2025 12 16 9 350 01 glonass127 H2 1106403 9127 37869 2025 12 16 0 0 0 2025 12 19 23 45 0 900 1 1 0 0 0 1 H9 10 0 61025 0.00000 0 -24298408.289 5124927.451 5788927.064 10 0 61025 900.00000 0 -24782087.940 5365211.172 2612617.416 10 0 61025 1800.00000 0 -24860651.827 5560952.258 -614545.581 10 0 61025 2700.00000 0 -24541971.260 5656340.801 -3829725.717 10 0 61025 3600.00000 0 -23847108.537 5598997.257 -6970207.107 10 0 61025 4500.00000 0 -22809408.833 5342452.398 -9974634.671 10 0 61025 5400.00000 0 -21473087.599 4848386.114 -12784234.988 10 0 61025 6300.00000 0 -19891371.915 4088526.624 -15343991.319 10 0 61025 7200.00000 0 -18124274.111 3046125.810 -17603747.229 10 0 61025 8100.00000 0 -16236092.330 1716944.520 -19519214.584 10 0 61025 9000.00000 0 -14292744.992 109702.896 -21052863.823 10 0 61025 9900.00000 0 -12359053.559 -1754025.873 -22174676.976 10 0 61025 10800.00000 0 -10496090.283 -3840475.593 -22862747.204 10 0 61025 11700.00000 0 -8758704.639 -6104873.875 -23103712.160 10 0 61025 12600.00000 0 -7193334.147 -8493105.658 -22893012.405 10 0 61025 13500.00000 0 -5836192.452 -10943782.671 -22234970.094 10 0 61025 14400.00000 0 -4711910.789 -13390630.584 -21142687.294 10 0 61025 15300.00000 0 -3832688.854 -15765092.040 -19637767.232 10 0 61025 16200.00000 0 -3197988.714 -17999034.875 -17749865.677 10 0 61025 17100.00000 0 -2794781.757 -20027450.762 -15516083.215 10 0 61025 18000.00000 0 -2598334.755 -21791030.491 -12980212.438 10 0 61025 18900.00000 0 -2573498.115 -23238508.080 -10191856.930 10 0 61025 19800.00000 0 -2676438.173 -24328676.363 -7205441.316 10 0 61025 20700.00000 0 -2856736.991 -25031991.349 -4079133.529 10 0 61025 21600.00000 0 -3059768.144 -25331700.552 -873701.824 10 0 61025 22500.00000 0 -3229246.152 -25224451.040 2348670.227 10 0 61025 23400.00000 0 -3309840.853 -24720354.930 5525587.155 10 0 61025 24300.00000 0 -3249746.233 -23842512.920 8595640.234 10 0 61025 25200.00000 0 -3003096.165 -22626018.620 11499578.865 10 0 61025 26100.00000 0 -2532126.705 -21116487.602 14181433.351 10 0 61025 27000.00000 0 -1808995.791 -19368173.951 16589569.255 10 0 61025 27900.00000 0 -817185.803 -17441753.290 18677655.334 10 0 61025 28800.00000 0 447568.112 -15401864.197 20405528.953 10 0 61025 29700.00000 0 1976861.742 -13314508.673 21739944.909 10 0 61025 30600.00000 0 3749734.602 -11244417.493 22655195.725 10 0 61025 31500.00000 0 5733307.742 -9252487.101 23133593.493 10 0 61025 32400.00000 0 7883921.691 -7393391.440 23165805.487 10 0 61025 33300.00000 0 10148729.738 -5713465.059 22751037.827 10 0 61025 34200.00000 0 12467683.564 -4248943.079 21897063.575 10 0 61025 35100.00000 0 14775832.406 -3024629.506 20620093.800 10 0 61025 36000.00000 0 17005843.972 -2053048.536 18944492.384 10 0 61025 36900.00000 0 19090645.718 -1334114.426 16902337.681 10 0 61025 37800.00000 0 20966079.353 -855334.728 14532836.713 10 0 61025 38700.00000 0 22573459.849 -592540.149 11881600.118 10 0 61025 39600.00000 0 23861932.856 -511112.556 8999788.952 10 0 61025 40500.00000 0 24790531.552 -567661.748 5943147.195 10 0 61025 41400.00000 0 25329845.256 -712082.319 2770936.574 10 0 61025 42300.00000 0 25463227.351 -889905.161 -455206.913 10 0 61025 43200.00000 0 25187488.736 -1044844.685 -3672473.107 10 0 61025 44100.00000 0 24513044.370 -1121433.447 -6818110.746 10 0 61025 45000.00000 0 23463503.588 -1067630.984 -9830668.222 10 0 61025 45900.00000 0 22074718.860 -837293.824 -12651216.029 10 0 61025 46800.00000 0 20393331.210 -392398.725 -15224524.719 10 0 61025 47700.00000 0 18474872.734 295078.675 -17500172.690 10 0 61025 48600.00000 0 16381506.246 1241713.078 -19433559.545 10 0 61025 49500.00000 0 14179498.219 2451671.459 -20986802.737 10 0 61025 50400.00000 0 11936533.063 3916291.071 -22129497.867 10 0 61025 51300.00000 0 9718983.744 5614213.440 -22839326.182 10 0 61025 52200.00000 0 7589255.543 7512069.884 -23102496.421 10 0 61025 53100.00000 0 5603316.366 9565689.917 -22914012.006 10 0 61025 54000.00000 0 3808518.462 11721781.120 -22277758.639 10 0 61025 54900.00000 0 2241803.350 13920008.612 -21206411.427 10 0 61025 55800.00000 0 928364.667 16095385.125 -19721164.686 10 0 61025 56700.00000 0 -119176.595 18180869.517 -17851291.418 10 0 61025 57600.00000 0 -901052.419 20110063.093 -15633543.061 10 0 61025 58500.00000 0 -1430075.253 21819889.353 -13111403.395 10 0 61025 59400.00000 0 -1730828.007 23253144.177 -10334213.348 10 0 61025 60300.00000 0 -1838354.742 24360809.701 -7356185.856 10 0 61025 61200.00000 0 -1796411.129 25104035.807 -4235331.884 10 0 61025 62100.00000 0 -1655351.953 25455707.966 -1032320.039 10 0 61025 63000.00000 0 -1469747.461 25401538.088 2190706.943 10 0 61025 63900.00000 0 -1295831.008 24940635.565 5371335.312 10 0 61025 64800.00000 0 -1188886.450 24085537.636 8448079.742 10 0 61025 65700.00000 0 -1200685.273 22861700.552 11361556.566 10 0 61025 66600.00000 0 -1377080.443 21306475.297 14055609.426 10 0 61025 67500.00000 0 -1755856.593 19467612.145 16478367.402 10 0 61025 68400.00000 0 -2364924.983 17401357.240 18583217.571 10 0 61025 69300.00000 0 -3220937.053 15170220.253 20329675.751 10 0 61025 70200.00000 0 -4328373.092 12840504.694 21684141.305 10 0 61025 71100.00000 0 -5679143.214 10479701.419 22620523.943 10 0 61025 72000.00000 0 -7252717.324 8153850.700 23120732.489 10 0 61025 72900.00000 0 -9016779.558 5924979.250 23175017.762 10 0 61025 73800.00000 0 -10928381.939 3848715.321 22782163.746 10 0 61025 74700.00000 0 -12935551.946 1972178.019 21949523.339 10 0 61025 75600.00000 0 -14979290.527 332226.215 20692897.113 10 0 61025 76500.00000 0 -16995881.094 -1045861.626 19036255.750 10 0 61025 77400.00000 0 -18919416.922 -2149222.214 17011309.173 10 0 61025 78300.00000 0 -20684444.784 -2977721.559 14656927.885 10 0 61025 79200.00000 0 -22228616.875 -3543734.088 12018424.648 10 0 61025 80100.00000 0 -23495241.481 -3871394.128 9146707.411 10 0 61025 81000.00000 0 -24435625.804 -3995349.063 6097317.208 10 0 61025 81900.00000 0 -25011111.652 -3959064.536 2929367.486 10 0 61025 82800.00000 0 -25194716.396 -3812751.487 -295595.897 10 0 61025 83700.00000 0 -24972307.287 -3611001.602 -3514792.465 10 0 61025 84600.00000 0 -24343256.295 -3410231.150 -6665439.093 10 0 61025 85500.00000 0 -23320544.389 -3266042.385 -9685990.991 10 0 61026 0.00000 0 -21930307.824 -3230616.259 -12517365.461 10 0 61026 900.00000 0 -20210842.204 -3350249.707 -15104123.691 10 0 61026 1800.00000 0 -18211106.512 -3663145.220 -17395581.116 10 0 61026 2700.00000 0 -15988787.005 -4197549.850 -19346827.072 10 0 61026 3600.00000 0 -13608004.480 -4970325.956 -20919627.476 10 0 61026 4500.00000 0 -11136761.813 -5986017.168 -22083192.327 10 0 61026 5400.00000 0 -8644240.824 -7236451.413 -22814791.123 10 0 61026 6300.00000 0 -6198063.929 -8700899.247 -23100203.196 10 0 61026 7200.00000 0 -3861637.361 -10346781.414 -22933993.720 10 0 61026 8100.00000 0 -1691688.856 -12130895.504 -22319610.292 10 0 61026 9000.00000 0 263896.243 -14001108.990 -21269298.947 10 0 61026 9900.00000 0 1967849.844 -15898445.797 -19803842.620 10 0 61026 10800.00000 0 3394833.695 -17759476.728 -17952128.802 10 0 61026 11700.00000 0 4532236.802 -19518911.367 -15750556.865 10 0 61026 12600.00000 0 5380427.224 -21112280.851 -13242298.756 10 0 61026 13500.00000 0 5952451.421 -22478597.667 -10476429.695 10 0 61026 14400.00000 0 6273197.924 -23562880.280 -7506947.922 10 0 61026 15300.00000 0 6378064.674 -24318436.876 -4391704.515 10 0 61026 16200.00000 0 6311190.097 -24708813.462 -1191265.676 10 0 61026 17100.00000 0 6123325.771 -24709326.414 2032269.290 10 0 61026 18000.00000 0 5869442.891 -24308117.578 5216470.752 10 0 61026 18900.00000 0 5606174.895 -23506690.330 8299778.928 10 0 61026 19800.00000 0 5389204.575 -22319906.987 11222679.021 10 0 61026 20700.00000 0 5270705.141 -20775449.938 13928829.694 10 0 61026 21600.00000 0 5296941.646 -18912770.774 16366124.970 10 0 61026 22500.00000 0 5506131.768 -16781572.384 18487671.400 10 0 61026 23400.00000 0 5926653.658 -14439887.225 20252664.139 10 0 61026 24300.00000 0 6575674.048 -11951830.794 21627147.708 10 0 61026 25200.00000 0 7458252.562 -9385121.713 22584649.296 10 0 61026 26100.00000 0 8566958.933 -6808468.676 23106674.473 10 0 61026 27000.00000 0 9882019.307 -4288929.463 23183057.349 10 0 61026 27900.00000 0 11371986.745 -1889348.120 22812159.283 10 0 61026 28800.00000 0 12994910.093 334026.621 22000912.303 10 0 61026 29700.00000 0 14699955.455 2333645.683 20764705.596 10 0 61026 30600.00000 0 16429416.109 4072401.406 19127115.579 10 0 61026 31500.00000 0 18121030.626 5524935.385 17119482.508 10 0 61026 32400.00000 0 19710515.762 6678458.113 14780338.956 10 0 61026 33300.00000 0 21134211.086 7533045.433 12154698.191 10 0 61026 34200.00000 0 22331726.453 8101397.870 9293213.222 10 0 61026 35100.00000 0 23248482.139 8408070.973 6251220.056 10 0 61026 36000.00000 0 23838034.507 8488206.859 3087681.551 10 0 61026 36900.00000 0 24064087.795 8385818.437 -135949.104 10 0 61026 37800.00000 0 23902104.717 8151697.314 -3356923.796 10 0 61026 38700.00000 0 23340444.690 7841033.180 -6512430.300 10 0 61026 39600.00000 0 22380978.040 7510845.754 -9540833.396 10 0 61026 40500.00000 0 21039146.676 7217339.346 -12382900.312 10 0 61026 41400.00000 0 19343465.508 7013294.352 -14982984.301 10 0 61026 42300.00000 0 17334483.196 6945609.114 -17290140.577 10 0 61026 43200.00000 0 15063244.515 7053099.580 -19259150.160 10 0 61026 44100.00000 0 12589318.560 7364653.295 -20851429.126 10 0 61026 45000.00000 0 9978476.150 7897818.952 -22035803.298 10 0 61026 45900.00000 0 7300115.229 8657893.654 -22789131.603 10 0 61026 46800.00000 0 4624543.973 9637548.212 -23096764.854 10 0 61026 47700.00000 0 2020237.379 10817007.141 -22952830.553 10 0 61026 48600.00000 0 -448816.043 12164775.650 -22360338.386 10 0 61026 49500.00000 0 -2725565.255 13638882.117 -21331105.108 10 0 61026 50400.00000 0 -4762042.305 15188582.063 -19885501.607 10 0 61026 51300.00000 0 -6521113.333 16756449.883 -18052028.752 10 0 61026 52200.00000 0 -7977763.187 18280768.087 -15866732.295 10 0 61026 53100.00000 0 -9119862.359 19698111.433 -13372470.402 10 0 61026 54000.00000 0 -9948387.443 20946015.554 -10618050.306 10 0 61026 54900.00000 0 -10477089.819 21965616.704 -7657252.996 10 0 61026 55800.00000 0 -10731630.700 22704151.289 -4547766.910 10 0 61026 56700.00000 0 -10748223.098 23117210.496 -1350052.946 10 0 61026 57600.00000 0 -10571841.632 23170656.555 1873836.001 10 0 61026 58500.00000 0 -10254078.634 22842121.944 5061457.380 10 0 61026 59400.00000 0 -9850739.035 22122031.006 8151179.924 10 0 61026 60300.00000 0 -9419276.428 21014103.633 11083360.555 10 0 61026 61200.00000 0 -9016178.271 19535322.179 13801475.668 10 0 61026 62100.00000 0 -8694409.379 17715365.052 16253186.807 10 0 61026 63000.00000 0 -8501019.447 15595531.614 18391322.382 10 0 61026 63900.00000 0 -8475012.989 13227203.651 20174759.023 10 0 61026 64800.00000 0 -8645568.809 10669906.914 21569188.300 10 0 61026 65700.00000 0 -9030681.528 7989051.445 22547756.484 10 0 61026 66600.00000 0 -9636280.602 5253442.076 23091567.165 10 0 61026 67500.00000 0 -10455863.027 2532659.208 23190038.656 10 0 61026 68400.00000 0 -11470655.438 -105585.120 22841110.183 10 0 61026 69300.00000 0 -12650300.213 -2598009.729 22051292.943 10 0 61026 70200.00000 0 -13954039.199 -4888142.347 20835564.268 10 0 61026 71100.00000 0 -15332348.683 -6928417.095 19217105.331 10 0 61026 72000.00000 0 -16728960.629 -8681905.949 17226885.205 10 0 61026 72900.00000 0 -18083189.132 -10123612.876 14903096.517 10 0 61026 73800.00000 0 -19332467.718 -11241276.416 12290450.557 10 0 61026 74700.00000 0 -20414993.482 -12035646.017 9439342.503 10 0 61026 75600.00000 0 -21272368.376 -12520218.777 6404900.135 10 0 61026 76500.00000 0 -21852126.791 -12720445.462 3245932.267 10 0 61026 77400.00000 0 -22110041.938 -12672437.070 23795.819 10 0 61026 78300.00000 0 -22012111.664 -12421224.650 -3198797.140 10 0 61026 79200.00000 0 -21536136.842 -12018644.678 -6359008.973 10 0 61026 80100.00000 0 -20672822.100 -11520939.109 -9395117.659 10 0 61026 81000.00000 0 -19426348.566 -10986172.351 -12247743.613 10 0 61026 81900.00000 0 -17814390.845 -10471576.135 -14861035.955 10 0 61026 82800.00000 0 -15867574.446 -10030937.144 -17183792.389 10 0 61026 83700.00000 0 -13628394.283 -9712141.003 -19170488.177 10 0 61026 84600.00000 0 -11149638.516 -9554979.741 -20782191.576 10 0 61026 85500.00000 0 -8492383.757 -9589318.585 -21987345.634 10 0 61027 0.00000 0 -5723646.732 -9833702.188 -22762399.357 10 0 61027 900.00000 0 -2913790.699 -10294461.267 -23092275.177 10 0 61027 1800.00000 0 -133800.751 -10965358.100 -22970662.145 10 0 61027 2700.00000 0 2547461.128 -11827786.362 -22400130.734 10 0 61027 3600.00000 0 5065901.256 -12851515.856 -21392066.586 10 0 61027 4500.00000 0 7364629.639 -13995949.259 -19966426.273 10 0 61027 5400.00000 0 9396083.399 -15211835.789 -18151321.418 10 0 61027 6300.00000 0 11123750.327 -16443367.175 -15982441.257 10 0 61027 7200.00000 0 12523422.304 -17630565.152 -13502327.065 10 0 61027 8100.00000 0 13583928.925 -18711857.733 -10759514.807 10 0 61027 9000.00000 0 14307324.154 -19626734.028 -7807564.845 10 0 61027 9900.00000 0 14708522.202 -20318364.809 -4703999.558 10 0 61027 10800.00000 0 14814402.164 -20736078.273 -1509171.159 10 0 61027 11700.00000 0 14662423.057 -20837587.408 1714917.119 10 0 61027 12600.00000 0 14298811.008 -20590876.601 4905812.880 10 0 61027 13500.00000 0 13776397.645 -19975670.134 8001816.147 10 0 61027 14400.00000 0 13152202.318 -18984423.122 10943158.006 10 0 61027 15300.00000 0 12484860.512 -17622795.615 13673134.667 10 0 61027 16200.00000 0 11832006.148 -15909591.934 16139176.837 10 0 61027 17100.00000 0 11247716.384 -13876169.126 18293835.989 10 0 61027 18000.00000 0 10780124.223 -11565339.922 20095671.048 10 0 61027 18900.00000 0 10469296.615 -9029815.492 21510021.038 10 0 61027 19800.00000 0 10345464.563 -6330251.422 22509651.335 10 0 61027 20700.00000 0 10427677.246 -3532975.854 23075263.232 10 0 61027 21600.00000 0 10722935.008 -707490.922 23195858.614 10 0 61027 22500.00000 0 11225836.991 2076152.417 22868953.681 10 0 61027 23400.00000 0 11918758.583 4750001.030 22100637.670 10 0 61027 24300.00000 0 12772552.768 7250761.547 20905474.749 10 0 61027 25200.00000 0 13747748.424 9522174.359 19306249.377 10 0 61027 26100.00000 0 14796198.394 11517103.307 17333557.831 10 0 61027 27000.00000 0 15863111.602 13199255.437 15025251.042 10 0 61027 27900.00000 0 16889387.146 14544459.427 12425736.443 10 0 61027 28800.00000 0 17814155.093 15541448.540 9585149.344 10 0 61027 29700.00000 0 18577418.971 16192113.784 6558407.107 10 0 61027 30600.00000 0 19122689.509 16511214.588 3404162.160 10 0 61027 31500.00000 0 19399498.189 16525556.796 183672.686 10 0 61027 32400.00000 0 19365682.906 16272670.467 -3040387.841 10 0 61027 33300.00000 0 18989346.569 15799041.563 -6205158.938 10 0 61027 34200.00000 0 18250402.451 15157971.302 -9248834.280 10 0 61027 35100.00000 0 17141637.126 14407153.690 -12111889.838 10 0 61027 36000.00000 0 15669242.186 13606074.678 -14738272.764 10 0 61027 36900.00000 0 13852788.732 12813344.880 -17076525.193 10 0 61027 37800.00000 0 11724642.835 12084081.219 -19080818.329 10 0 61027 38700.00000 0 9328844.554 11467451.206 -20711874.067 10 0 61027 39600.00000 0 6719496.732 11004486.636 -21937753.915 10 0 61027 40500.00000 0 3958731.188 10726261.788 -22734498.073 10 0 61027 41400.00000 0 1114338.478 10652515.147 -23086601.077 10 0 61027 42300.00000 0 -1742838.038 10790774.102 -22987314.191 10 0 61027 43200.00000 0 -4541633.039 11136019.898 -22438768.816 10 0 61027 44100.00000 0 -7213299.148 11670906.353 -21451919.222 10 0 61027 45000.00000 0 -9694140.038 12366521.619 -20046306.972 10 0 61027 45900.00000 0 -11927926.092 13183658.710 -18249653.311 10 0 61027 46800.00000 0 -13867991.856 14074538.610 -16097289.409 10 0 61027 47700.00000 0 -15478928.775 14984910.505 -13631437.740 10 0 61027 48600.00000 0 -16737804.519 15856437.930 -10900360.818 10 0 61027 49500.00000 0 -17634860.892 16629267.971 -7957395.987 10 0 61027 50400.00000 0 -18173664.688 17244673.505 -4859897.045 10 0 61027 51300.00000 0 -18370709.238 17647656.249 -1668104.918 10 0 61027 52200.00000 0 -18254487.385 17789400.834 1556029.453 10 0 61027 53100.00000 0 -17864078.670 17629477.344 4750046.465 10 0 61027 54000.00000 0 -17247313.237 17137701.075 7852180.078 10 0 61027 54900.00000 0 -16458591.836 16295573.190 10802538.156 10 0 61027 55800.00000 0 -15556454.854 15097243.983 13544239.290 10 0 61027 56700.00000 0 -14601002.499 13549960.222 16024485.825 10 0 61027 57600.00000 0 -13651273.568 11673979.483 18195554.652 10 0 61027 58500.00000 0 -12762691.008 9501955.929 20015689.149 10 0 61027 59400.00000 0 -11984678.934 7077823.167 21449877.732 10 0 61027 60300.00000 0 -11358548.232 4455219.698 22470506.569 10 0 61027 61200.00000 0 -10915736.681 1695520.438 23057876.024 10 0 61027 62100.00000 0 -10676475.070 -1134446.794 23200572.582 10 0 61027 63000.00000 0 -10648933.726 -3964908.533 22895690.059 10 0 61027 63900.00000 0 -10828884.691 -6725776.478 22148895.976 10 0 61027 64800.00000 0 -11199894.261 -9349296.531 20974341.141 10 0 61027 65700.00000 0 -11734039.405 -11772609.609 19394412.652 10 0 61027 66600.00000 0 -12393120.432 -13940120.562 17439332.900 10 0 61027 67500.00000 0 -13130321.979 -15805578.550 15146609.577 10 0 61027 68400.00000 0 -13892255.673 -17333782.980 12560344.297 10 0 61027 69300.00000 0 -14621301.446 -18501843.495 9730410.166 10 0 61027 70200.00000 0 -15258151.210 -19299940.060 6711511.462 10 0 61027 71100.00000 0 -15744449.018 -19731549.317 3562141.302 10 0 61027 72000.00000 0 -16025416.494 -19813125.262 343455.976 10 0 61027 72900.00000 0 -16052351.639 -19573245.256 -2881912.949 10 0 61027 73800.00000 0 -15784893.250 -19051255.160 -6051085.586 10 0 61027 74700.00000 0 -15192952.105 -18295469.282 -9102174.820 10 0 61027 75600.00000 0 -14258223.531 -17361000.452 -11975515.692 10 0 61027 76500.00000 0 -12975213.402 -16307312.260 -14614856.838 10 0 61027 77400.00000 0 -11351730.367 -15195598.141 -16968488.087 10 0 61027 78300.00000 0 -9408820.122 -14086100.163 -18990279.546 10 0 61027 79200.00000 0 -7180141.863 -13035483.383 -20640609.297 10 0 61027 80100.00000 0 -4710811.499 -12094379.495 -21887159.314 10 0 61027 81000.00000 0 -2055759.556 -11305206.147 -22705562.337 10 0 61027 81900.00000 0 722327.052 -10700356.155 -23079885.886 10 0 61027 82800.00000 0 3555392.075 -10300834.474 -23002943.432 10 0 61027 83700.00000 0 6372624.348 -10115400.969 -22476426.781 10 0 61027 84600.00000 0 9103188.533 -10140254.716 -21510857.751 10 0 61027 85500.00000 0 11678956.427 -10359271.772 -20125361.337 10 0 61028 0.00000 0 14037123.383 -10744784.207 -18347266.581 10 0 61028 900.00000 0 16122601.328 -11258865.003 -16211543.878 10 0 61028 1800.00000 0 17890085.696 -11855061.032 -13760094.291 10 0 61028 2700.00000 0 19305715.438 -12480498.600 -11040903.788 10 0 61028 3600.00000 0 20348255.784 -13078269.418 -8107083.302 10 0 61028 4500.00000 0 21009758.641 -13589994.238 -5015814.430 10 0 61028 5400.00000 0 21295676.371 -13958454.375 -1827223.061 10 0 61028 6300.00000 0 21224428.114 -14130179.415 1396795.944 10 0 61028 7200.00000 0 20826440.680 -14057882.148 4593779.475 10 0 61028 8100.00000 0 20142707.610 -13702639.032 7701898.846 10 0 61028 9000.00000 0 19222929.792 -13035726.050 10661141.801 10 0 61028 9900.00000 0 18123317.217 -12040034.633 13414451.970 10 0 61028 10800.00000 0 16904144.762 -10711010.107 15908805.508 10 0 61028 11700.00000 0 15627164.202 -9057075.165 18096206.401 10 0 61028 12600.00000 0 14352979.349 -7099521.718 19934583.668 10 0 61028 13500.00000 0 13138492.080 -4871876.076 21388575.831 10 0 61028 14400.00000 0 12034523.387 -2418763.354 22430190.113 10 0 61028 15300.00000 0 11083706.010 205683.236 23039325.810 10 0 61028 16200.00000 0 10318734.098 2939804.582 23204153.495 10 0 61028 17100.00000 0 9761040.896 5716710.331 22921343.754 10 0 61028 18000.00000 0 9419958.457 8466794.488 22196141.244 10 0 61028 18900.00000 0 9292394.128 11120371.520 21042281.997 10 0 61028 19800.00000 0 9363038.077 13610327.231 19481754.099 10 0 61028 20700.00000 0 9605094.759 15874677.453 17544404.199 10 0 61028 21600.00000 0 9981510.042 17858930.440 15267394.719 10 0 61028 22500.00000 0 10446645.183 19518155.880 12694519.246 10 0 61028 23400.00000 0 10948330.108 20818674.318 9875386.329 10 0 61028 24300.00000 0 11430211.971 21739295.484 6864484.657 10 0 61028 25200.00000 0 11834301.684 22272051.826 3720145.392 10 0 61028 26100.00000 0 12103611.684 22422394.060 503420.211 10 0 61028 27000.00000 0 12184773.048 22208837.830 -2723103.996 10 0 61028 27900.00000 0 12030519.718 21662073.772 -5896530.661 10 0 61028 28800.00000 0 11601932.092 20823576.418 -8954894.497 10 0 61028 29700.00000 0 10870341.644 19743769.252 -11838392.044 10 0 61028 30600.00000 0 9818812.056 18479822.992 -14490575.600 10 0 61028 31500.00000 0 8443130.253 17093180.604 -16859484.614 10 0 61028 32400.00000 0 6752261.723 15646915.032 -18898689.738 10 0 61028 33300.00000 0 4768247.763 14203033.298 -20568226.611 10 0 61028 34200.00000 0 2525546.699 12819843.313 -21835398.795 10 0 61028 35100.00000 0 69845.478 11549497.007 -22675432.432 10 0 61028 36000.00000 0 -2543608.812 10435815.674 -23071968.621 10 0 61028 36900.00000 0 -5252086.883 9512490.808 -23017383.327 10 0 61028 37800.00000 0 -7987776.378 8801737.090 -22512928.689 10 0 61028 38700.00000 0 -10680400.169 8313454.083 -21568693.596 10 0 61028 39600.00000 0 -13259942.523 8044930.814 -20203385.556 10 0 61028 40500.00000 0 -15659367.720 7981103.626 -18443939.716 10 0 61028 41400.00000 0 -17817216.530 8095353.644 -16324964.597 10 0 61028 42300.00000 0 -19679971.739 8350806.961 -13888037.509 10 0 61028 43200.00000 0 -21204094.491 8702079.292 -11180865.585 10 0 61028 44100.00000 0 -22357647.841 9097388.149 -8256330.913 10 0 61028 45000.00000 0 -23121441.943 9480940.516 -5171440.378 10 0 61028 45900.00000 0 -23489656.068 9795493.002 -1986202.286 10 0 61028 46800.00000 0 -23469914.923 9984975.014 1237547.125 10 0 61028 47700.00000 0 -23082819.752 9997063.726 4437343.746 10 0 61028 48600.00000 0 -22360957.397 9785602.663 7551298.794 10 0 61028 49500.00000 0 -21347431.863 9312763.085 10519282.392 10 0 61028 50400.00000 0 -20093982.053 8550858.876 13284065.643 10 0 61028 51300.00000 0 -18658765.791 7483740.566 15792400.891 10 0 61028 52200.00000 0 -17103902.895 6107711.786 17996021.462 10 0 61028 53100.00000 0 -15492879.184 4431931.203 19852544.044 10 0 61028 54000.00000 0 -13887918.149 2478284.007 21326259.062 10 0 61028 54900.00000 0 -12347427.347 280728.117 22388796.277 10 0 61028 55800.00000 0 -10923623.252 -2115858.675 23019655.064 10 0 61028 56700.00000 0 -9660430.647 -4657284.703 23206590.886 10 0 61028 57600.00000 0 -8591741.491 -7282039.811 22945851.538 10 0 61028 58500.00000 0 -7740103.950 -9923600.750 22242258.893 10 0 61028 59400.00000 0 -7115895.117 -12512954.744 21109133.930 10 0 61028 60300.00000 0 -6717011.838 -14981240.333 19568065.096 10 0 61028 61200.00000 0 -6529093.370 -17262399.130 17648522.313 10 0 61028 62100.00000 0 -6526268.268 -19295730.994 15387321.402 10 0 61028 63000.00000 0 -6672396.383 -21028247.909 12827946.275 10 0 61028 63900.00000 0 -6922756.423 -22416729.010 10019738.961 10 0 61028 64800.00000 0 -7226110.465 -23429390.338 7016970.333 10 0 61028 65700.00000 0 -7527060.412 -24047097.891 3877807.148 10 0 61028 66600.00000 0 -7768598.097 -24264070.713 663193.811 10 0 61028 67500.00000 0 -7894741.442 -24088041.666 -2564330.297 10 0 61028 68400.00000 0 -7853144.158 -23539866.212 -5741854.917 10 0 61028 69300.00000 0 -7597566.490 -22652593.029 -8807339.708 10 0 61028 70200.00000 0 -7090099.392 -21470033.648 -11700845.915 10 0 61028 71100.00000 0 -6303044.310 -20044890.262 -14365732.738 10 0 61028 72000.00000 0 -5220365.102 -18436520.534 -16749792.394 10 0 61028 72900.00000 0 -3838646.785 -16708434.473 -18806299.069 10 0 61028 73800.00000 0 -2167517.137 -14925630.548 -20494948.641 10 0 61028 74700.00000 0 -229510.604 -13151885.514 -21782668.536 10 0 61028 75600.00000 0 1940621.647 -11447114.546 -22644280.076 10 0 61028 76500.00000 0 4297127.407 -9864915.112 -23062999.178 10 0 61028 77400.00000 0 6784943.708 -8450399.851 -23030764.985 10 0 61028 78300.00000 0 9341789.931 -7238410.725 -22548390.098 10 0 61028 79200.00000 0 11900574.610 -6252189.732 -21625530.113 10 0 61028 80100.00000 0 14392013.369 -5502561.312 -20280474.215 10 0 61028 81000.00000 0 16747346.732 -4987658.991 -18539762.539 10 0 61028 81900.00000 0 18901042.690 -4693205.089 -16437639.685 10 0 61028 82800.00000 0 20793370.130 -4593328.403 -14015357.178 10 0 61028 83700.00000 0 22372735.384 -4651881.717 -11320340.704 10 0 61028 84600.00000 0 23597684.970 -4824199.853 -8405240.476 10 0 61028 85500.00000 0 24438492.329 -5059220.679 -5326885.270 99